Change the Weather History Date:

Friday, September 27, 2013

  Actual Average Record
Temperature  
Mean Temperature 59 °F 59 °F  
Max Temperature 72 °F 71 °F 85 °F (1998)
Min Temperature 46 °F 46 °F 37 °F (1983)
Degree Days  
Heating Degree Days 6 7  
Month to date heating degree days 82 89  
Since 1 July heating degree days 105 107  
Cooling Degree Days 0 1  
Month to date cooling degree days 55 56  
Year to date cooling degree days 561 568  
Growing Degree Days 10 (Base 50)    
Moisture  
Dew Point 54 °F    
Average Humidity 77    
Maximum Humidity 100    
Minimum Humidity 53    
Precipitation  
Precipitation 0.00 in 0.10 in 2.21 in (1956)
Month to date precipitation 1.13 2.79  
Year to date precipitation 40.68 31.98  
Snow  
Snow 0.00 in - - ()
Month to date snowfall 0.0  
Since 1 July snowfall 0.0  
Since 1 September snowfall 0.0  
Snow Depth 0.00 in    
Sea Level Pressure  
Sea Level Pressure 30.21 in    
Wind  
Wind Speed 1 mph (East)    
Max Wind Speed 8 mph    
Max Gust Speed -    
Visibility 9 miles    
Events      
T = Trace of Precipitation, MM = Missing Value Source: NWS Daily Summary

Daily Weather History Graph

Daily Weather History Graph

Search for Another Location

Airport or City:

Trip Planner

Search our weather history database for the weather conditions in past years. The results will help you decide how hot, cold, wet, or windy it might be!

Date:

Astronomy

Sep. 27, 2013 Rise Set
Actual Time 7:13 AM EDT 7:10 PM EDT
Civil Twilight 6:47 AM EDT 7:36 PM EDT
Nautical Twilight 6:17 AM EDT 8:06 PM EDT
Astronomical Twilight 5:47 AM EDT 8:37 PM EDT
Moon 12:15 AM EDT (9/27) 2:40 PM EDT (9/27)
Length of Visible Light 12h 48m
Length of Day
11h 56m
Last Quarter, 45% of the Moon is Illuminated
Sep 27
Last Quarter
Oct 4
New
Oct 11
First Quarter
Oct 18
Full
Oct 26
Last Quarter

Hourly Weather History & Observations

Time (EDT) Temp. Dew Point Humidity Pressure Visibility Wind Dir Wind Speed Gust Speed Precip Events Conditions
12:15 AM 57.2 °F 57.2 °F 100% 30.15 in 10.0 mi Calm Calm - N/A   Overcast
12:35 AM 59.0 °F 57.2 °F 94% 30.15 in 10.0 mi Calm Calm - N/A   Mostly Cloudy
12:55 AM 57.2 °F 57.2 °F 100% 30.15 in 10.0 mi Calm Calm - N/A   Scattered Clouds
1:15 AM 55.4 °F 55.4 °F 100% 30.15 in 10.0 mi Calm Calm - N/A   Clear
1:35 AM 53.6 °F 53.6 °F 100% 30.15 in 10.0 mi Calm Calm - N/A   Clear
1:55 AM 53.6 °F 53.6 °F 100% 30.16 in 10.0 mi Calm Calm - N/A   Clear
2:15 AM 53.6 °F 53.6 °F 100% 30.16 in 10.0 mi Calm Calm - N/A   Clear
2:35 AM 51.8 °F 51.8 °F 100% 30.15 in 10.0 mi Calm Calm - N/A   Clear
2:55 AM 51.8 °F 51.8 °F 100% 30.15 in 10.0 mi Calm Calm - N/A   Clear
3:15 AM 51.8 °F 51.8 °F 100% 30.15 in 7.0 mi Calm Calm - N/A   Clear
3:35 AM 51.8 °F 51.8 °F 100% 30.15 in 7.0 mi Calm Calm - N/A   Clear
3:55 AM 50.0 °F 50.0 °F 100% 30.15 in 7.0 mi Calm Calm - N/A   Clear
4:15 AM 50.0 °F 50.0 °F 100% 30.15 in 7.0 mi Calm Calm - N/A   Clear
4:35 AM 50.0 °F 50.0 °F 100% 30.16 in 7.0 mi Calm Calm - N/A   Clear
4:55 AM 48.2 °F 48.2 °F 100% 30.16 in 2.5 mi Calm Calm - N/A   Clear
5:15 AM 48.2 °F 48.2 °F 100% 30.17 in 4.0 mi Calm Calm - N/A   Clear
5:35 AM 48.2 °F 48.2 °F 100% 30.17 in 1.0 mi Calm Calm - N/A   Mist
5:55 AM 48.2 °F 48.2 °F 100% 30.18 in 5.0 mi Calm Calm - N/A   Clear
6:15 AM 48.2 °F 48.2 °F 100% 30.18 in 2.5 mi Calm Calm - N/A   Scattered Clouds
6:35 AM 48.2 °F 48.2 °F 100% 30.18 in 1.0 mi Calm Calm - N/A   Mostly Cloudy
6:55 AM 48.2 °F 48.2 °F 100% 30.19 in 1.5 mi Calm Calm - N/A   Mostly Cloudy
7:15 AM 48.2 °F 48.2 °F 100% 30.20 in 5.0 mi Calm Calm - N/A   Clear
7:35 AM 48.2 °F 48.2 °F 100% 30.21 in 3.0 mi Calm Calm - N/A   Clear
7:55 AM 50.0 °F 50.0 °F 100% 30.21 in 3.0 mi Calm Calm - N/A   Clear
8:15 AM 51.8 °F 51.8 °F 100% 30.22 in 3.0 mi Calm Calm - N/A   Scattered Clouds
8:35 AM 51.8 °F 51.8 °F 100% 30.23 in 7.0 mi Calm Calm - N/A   Clear
8:55 AM 53.6 °F 53.6 °F 100% 30.23 in 10.0 mi Calm Calm - N/A   Clear
9:15 AM 57.2 °F 57.2 °F 100% 30.24 in 10.0 mi Calm Calm - N/A   Clear
9:35 AM 59.0 °F 57.2 °F 94% 30.24 in 10.0 mi Calm Calm - N/A   Clear
9:55 AM 60.8 °F 55.4 °F 82% 30.24 in 10.0 mi Calm Calm - N/A   Clear
10:15 AM 62.6 °F 57.2 °F 82% 30.24 in 10.0 mi Calm Calm - N/A   Clear
10:35 AM 62.6 °F 57.2 °F 82% 30.25 in 10.0 mi Calm Calm - N/A   Clear
10:55 AM 64.4 °F 57.2 °F 77% 30.24 in 10.0 mi Calm Calm - N/A   Clear
11:15 AM 66.2 °F 55.4 °F 68% 30.24 in 10.0 mi ENE 3.5 mph - N/A   Clear
11:35 AM 66.2 °F 53.6 °F 64% 30.24 in 10.0 mi East 6.9 mph - N/A   Clear
11:55 AM 66.2 °F 55.4 °F 68% 30.24 in 10.0 mi ESE 5.8 mph - N/A   Clear
12:15 PM 68.0 °F 55.4 °F 64% 30.24 in 10.0 mi ESE 4.6 mph - N/A   Clear
12:35 PM 66.2 °F 53.6 °F 64% 30.23 in 10.0 mi ENE 5.8 mph - N/A   Clear
12:55 PM 69.8 °F 51.8 °F 53% 30.23 in 10.0 mi Calm Calm - N/A   Clear
1:15 PM 69.8 °F 53.6 °F 56% 30.23 in 10.0 mi Calm Calm - N/A   Clear
1:35 PM 69.8 °F 53.6 °F 56% 30.22 in 10.0 mi South 4.6 mph - N/A   Scattered Clouds
1:55 PM 71.6 °F 53.6 °F 53% 30.21 in 10.0 mi NNE 5.8 mph - N/A   Scattered Clouds
2:15 PM 71.6 °F 53.6 °F 53% 30.21 in 10.0 mi Calm Calm - N/A   Mostly Cloudy
2:35 PM 71.6 °F 53.6 °F 53% 30.20 in 7.0 mi NNW 4.6 mph - N/A   Scattered Clouds
2:55 PM 69.8 °F 53.6 °F 56% 30.20 in 10.0 mi Calm Calm - N/A   Mostly Cloudy
3:15 PM 71.6 °F 53.6 °F 53% 30.20 in 7.0 mi Calm Calm - N/A   Scattered Clouds
3:35 PM 69.8 °F 53.6 °F 56% 30.20 in 10.0 mi East 5.8 mph - N/A   Scattered Clouds
3:55 PM 71.6 °F 53.6 °F 53% 30.19 in 10.0 mi Calm Calm - N/A   Scattered Clouds
4:15 PM 69.8 °F 53.6 °F 56% 30.19 in 10.0 mi East 4.6 mph - N/A   Scattered Clouds
4:35 PM 69.8 °F 53.6 °F 56% 30.19 in 10.0 mi East 8.1 mph - N/A   Mostly Cloudy
4:55 PM 71.6 °F 53.6 °F 53% 30.19 in 10.0 mi East 6.9 mph - N/A   Mostly Cloudy
5:15 PM 69.8 °F 53.6 °F 56% 30.19 in 10.0 mi East 8.1 mph - N/A   Mostly Cloudy
5:35 PM 69.8 °F 55.4 °F 60% 30.20 in 10.0 mi East 6.9 mph - N/A   Scattered Clouds
5:55 PM 66.2 °F 53.6 °F 64% 30.20 in 10.0 mi East 5.8 mph - N/A   Clear
6:15 PM 64.4 °F 55.4 °F 73% 30.20 in 10.0 mi East 4.6 mph - N/A   Clear
6:35 PM 64.4 °F 55.4 °F 73% 30.21 in 10.0 mi East 3.5 mph - N/A   Clear
6:55 PM 62.6 °F 55.4 °F 77% 30.21 in 10.0 mi ESE 3.5 mph - N/A   Clear
7:15 PM 62.6 °F 55.4 °F 77% 30.21 in 10.0 mi ESE 3.5 mph - N/A   Clear
7:35 PM 60.8 °F 55.4 °F 82% 30.21 in 10.0 mi ESE 3.5 mph - N/A   Clear
7:55 PM 60.8 °F 55.4 °F 82% 30.21 in 10.0 mi ESE 3.5 mph - N/A   Clear
8:15 PM 59.0 °F 55.4 °F 88% 30.22 in 10.0 mi ESE 3.5 mph - N/A   Clear
8:35 PM 57.2 °F 53.6 °F 88% 30.23 in 10.0 mi Calm Calm - N/A   Clear
8:55 PM 57.2 °F 55.4 °F 94% 30.23 in 10.0 mi Calm Calm - N/A   Clear
9:15 PM 55.4 °F 53.6 °F 94% 30.24 in 10.0 mi Calm Calm - N/A   Clear
9:35 PM 55.4 °F 55.4 °F 100% 30.24 in 10.0 mi Calm Calm - N/A   Clear
9:55 PM 55.4 °F 53.6 °F 94% 30.25 in 10.0 mi Calm Calm - N/A   Clear
10:15 PM 55.4 °F 53.6 °F 94% 30.26 in 10.0 mi Calm Calm - N/A   Scattered Clouds
10:35 PM 55.4 °F 55.4 °F 100% 30.27 in 10.0 mi Calm Calm - N/A   Overcast
10:55 PM 55.4 °F 55.4 °F 100% 30.28 in 10.0 mi Calm Calm - N/A   Overcast
11:15 PM 57.2 °F 57.2 °F 100% 30.28 in 10.0 mi Calm Calm - N/A   Overcast
11:35 PM 57.2 °F 57.2 °F 100% 30.28 in 10.0 mi Calm Calm - N/A   Overcast
11:55 PM 57.2 °F 57.2 °F 100% 30.28 in 10.0 mi Calm Calm - N/A   Overcast